Location: Ceske Budejovice
(48.9830°N, 14.4670°E)
Time: 06:14:21
(UTC+02:00)

ISS - Visible Passes

Search period start: 01 May 2017 00:00
Search period end: 11 May 2017 00:00
Orbit: 401 x 409 km, 51.6° (Epoch: 01 May)

Date Brightness Start Highest point End Pass type
(mag) Time Alt. Az. Time Alt. Az. Time Alt. Az.
06 May -1.2 04:46:27 10° SSE 04:47:56 13° SE 04:49:25 10° ESE visible
08 May -2.1 04:37:07 10° SSW 04:39:50 24° SE 04:42:33 10° E visible
09 May -1.6 03:46:35 13° SSE 03:47:53 15° SE 03:49:52 10° E visible
10 May -3.2 04:28:59 12° SW 04:31:48 45° SSE 04:34:57 10° ENE visible
